TimeCST,TemperatureF,Dew PointF,Humidity,Sea Level PressureIn,VisibilityMPH,Wind Direction,Wind SpeedMPH,Gust SpeedMPH,PrecipitationIn,Events,Conditions,WindDirDegrees,DateUTC
12:15 AM,23.0,20.5,90,29.81,7.0,South,6.9,-,N/A,,Clear,180,2013-02-24 06:15:00
12:35 AM,21.9,19.6,91,29.83,5.0,SSW,9.2,-,N/A,,Clear,200,2013-02-24 06:35:00
12:55 AM,23.4,21.2,91,29.83,5.0,South,8.1,-,N/A,,Clear,190,2013-02-24 06:55:00
1:15 AM,24.3,22.1,91,29.83,7.0,South,10.4,-,N/A,,Clear,190,2013-02-24 07:15:00
1:35 AM,23.5,21.2,91,29.84,5.0,South,8.1,-,N/A,,Clear,190,2013-02-24 07:35:00
1:55 AM,22.8,20.5,91,29.85,5.0,South,5.8,-,N/A,,Clear,190,2013-02-24 07:55:00
2:15 AM,23.0,21.2,93,29.85,5.0,South,5.8,-,N/A,,Clear,190,2013-02-24 08:15:00
2:35 AM,22.3,20.5,93,29.84,5.0,South,6.9,-,N/A,,Clear,180,2013-02-24 08:35:00
2:55 AM,21.7,20.1,93,29.85,4.0,South,5.8,-,N/A,,Clear,190,2013-02-24 08:55:00
3:15 AM,20.3,19.0,95,29.85,4.0,SSW,3.5,-,N/A,,Clear,200,2013-02-24 09:15:00
3:35 AM,20.1,18.9,95,29.85,3.0,SSW,5.8,-,N/A,,Clear,200,2013-02-24 09:35:00
3:55 AM,18.5,17.2,95,29.85,2.5,SSW,6.9,-,N/A,,Clear,200,2013-02-24 09:55:00
4:15 AM,20.1,18.7,94,29.85,2.5,South,6.9,-,N/A,,Clear,190,2013-02-24 10:15:00
4:35 AM,21.2,20.1,96,29.85,3.0,SSW,4.6,-,N/A,,Clear,200,2013-02-24 10:35:00
4:55 AM,19.2,17.8,94,29.86,2.5,SSW,4.6,-,N/A,,Clear,210,2013-02-24 10:55:00
5:15 AM,17.6,15.8,93,29.86,2.0,SSW,4.6,-,N/A,,Clear,200,2013-02-24 11:15:00
5:35 AM,17.6,16.0,93,29.86,2.0,SSW,4.6,-,N/A,,Clear,200,2013-02-24 11:35:00
6:15 AM,12.2,9.5,89,29.87,0.5,SW,3.5,-,N/A,Fog,Light Freezing Fog,220,2013-02-24 12:15:00
6:35 AM,12.6,10.0,90,29.87,0.2,SSW,3.5,-,N/A,Fog,Light Freezing Fog,210,2013-02-24 12:35:00
6:55 AM,9.9,6.8,87,29.88,0.2,SW,3.5,-,N/A,Fog,Light Freezing Fog,230,2013-02-24 12:55:00
7:15 AM,14.2,12.2,92,29.88,1.0,Calm,Calm,-,N/A,,Overcast,0,2013-02-24 13:15:00
7:35 AM,-9999,-9999,N/A,29.89,3.0,South,4.6,-,N/A,,Overcast,180,2013-02-24 13:35:00
7:55 AM,-9999,-9999,N/A,29.89,3.0,Calm,Calm,-,N/A,,Overcast,0,2013-02-24 13:55:00
8:15 AM,-9999,-9999,N/A,29.89,3.0,Calm,Calm,-,N/A,,Scattered Clouds,0,2013-02-24 14:15:00
8:35 AM,-9999,-9999,N/A,29.91,2.5,SW,3.5,-,N/A,,Scattered Clouds,230,2013-02-24 14:35:00
8:55 AM,-9999,-9999,N/A,29.92,3.0,WSW,4.6,-,N/A,,Mostly Cloudy,250,2013-02-24 14:55:00
9:15 AM,-9999,-9999,N/A,29.93,3.0,West,3.5,-,N/A,,Mostly Cloudy,260,2013-02-24 15:15:00
9:35 AM,-9999,-9999,N/A,29.94,4.0,West,3.5,-,N/A,,Haze,270,2013-02-24 15:35:00
9:55 AM,-9999,-9999,N/A,29.94,4.0,Calm,Calm,-,N/A,,Haze,0,2013-02-24 15:55:00
10:15 AM,-9999,-9999,N/A,29.95,4.0,NNW,4.6,-,N/A,,Haze,330,2013-02-24 16:15:00
10:35 AM,24.8,24.3,98,29.95,4.0,Calm,Calm,-,N/A,,Mostly Cloudy,0,2013-02-24 16:35:00
10:55 AM,24.8,24.3,98,29.96,5.0,Calm,Calm,-,N/A,,Scattered Clouds,0,2013-02-24 16:55:00
11:15 AM,25.5,24.3,95,29.96,5.0,North,3.5,-,N/A,,Scattered Clouds,10,2013-02-24 17:15:00
11:35 AM,27.0,23.7,88,29.96,4.0,North,3.5,-,N/A,,Mostly Cloudy,10,2013-02-24 17:35:00
11:55 AM,28.2,24.1,84,29.95,4.0,NNE,4.6,-,N/A,,Mostly Cloudy,30,2013-02-24 17:55:00
12:15 PM,28.8,24.6,84,29.95,4.0,Calm,Calm,-,N/A,,Haze,0,2013-02-24 18:15:00
12:35 PM,29.8,25.0,82,29.94,5.0,NNW,5.8,-,N/A,,Haze,340,2013-02-24 18:35:00
12:55 PM,30.2,24.8,80,29.95,5.0,North,3.5,-,N/A,,Haze,360,2013-02-24 18:55:00
1:15 PM,31.1,25.5,80,29.94,5.0,North,4.6,-,N/A,,Haze,10,2013-02-24 19:15:00
1:35 PM,31.6,25.3,78,29.93,7.0,NNE,3.5,-,N/A,,Overcast,20,2013-02-24 19:35:00
1:55 PM,32.2,26.2,79,29.92,7.0,NNE,5.8,-,N/A,,Overcast,20,2013-02-24 19:55:00
2:15 PM,32.4,27.5,82,29.92,7.0,North,8.1,-,N/A,,Overcast,10,2013-02-24 20:15:00
2:35 PM,32.0,27.7,84,29.92,7.0,North,9.2,-,N/A,,Overcast,10,2013-02-24 20:35:00
2:55 PM,32.2,28.0,85,29.92,7.0,NNE,6.9,-,N/A,,Overcast,20,2013-02-24 20:55:00
3:15 PM,32.2,28.6,87,29.92,5.0,NE,4.6,-,N/A,,Overcast,40,2013-02-24 21:15:00
3:35 PM,32.4,28.6,86,29.93,5.0,NNE,8.1,-,N/A,,Overcast,20,2013-02-24 21:35:00
3:55 PM,32.2,28.8,87,29.93,5.0,NNE,8.1,-,N/A,,Overcast,30,2013-02-24 21:55:00
4:15 PM,32.0,28.9,88,29.93,4.0,North,9.2,-,N/A,,Overcast,10,2013-02-24 22:15:00
4:35 PM,32.0,29.8,92,29.93,4.0,North,12.7,-,N/A,,Overcast,10,2013-02-24 22:35:00
4:55 PM,32.0,29.7,91,29.93,4.0,NNE,11.5,-,N/A,,Overcast,20,2013-02-24 22:55:00
5:15 PM,31.8,29.1,90,29.93,5.0,NNE,13.8,-,N/A,,Overcast,20,2013-02-24 23:15:00
5:35 PM,31.5,28.8,90,29.94,5.0,NNE,11.5,-,N/A,,Overcast,20,2013-02-24 23:35:00
5:55 PM,31.1,28.8,91,29.95,5.0,NNE,9.2,-,N/A,,Overcast,20,2013-02-24 23:55:00
6:15 PM,31.1,28.8,91,29.96,5.0,NNE,11.5,-,N/A,,Overcast,30,2013-02-25 00:15:00
6:35 PM,30.9,28.4,90,29.97,5.0,NNE,15.0,-,N/A,,Overcast,20,2013-02-25 00:35:00
6:55 PM,30.2,27.5,90,29.99,5.0,NNE,10.4,-,N/A,,Overcast,20,2013-02-25 00:55:00
7:15 PM,30.2,27.9,91,30.00,5.0,NNE,12.7,-,N/A,,Overcast,20,2013-02-25 01:15:00
7:35 PM,30.0,27.5,90,30.01,5.0,NNE,11.5,-,N/A,,Overcast,20,2013-02-25 01:35:00
7:55 PM,30.0,27.5,90,30.02,4.0,NNE,9.2,-,N/A,,Overcast,30,2013-02-25 01:55:00
8:15 PM,29.7,27.5,92,30.02,2.5,NNE,10.4,-,N/A,Snow,Light Snow,20,2013-02-25 02:15:00
8:35 PM,29.5,27.5,92,30.03,4.0,NNE,8.1,-,N/A,,Overcast,20,2013-02-25 02:35:00
8:55 PM,29.3,27.5,93,30.04,3.0,North,6.9,-,N/A,,Overcast,10,2013-02-25 02:55:00
9:15 PM,29.3,27.5,93,30.05,3.0,North,10.4,-,N/A,Snow,Light Snow,10,2013-02-25 03:15:00
9:35 PM,29.3,27.3,92,30.06,3.0,North,10.4,-,N/A,,Overcast,10,2013-02-25 03:35:00
9:55 PM,29.1,27.1,92,30.07,3.0,North,9.2,-,N/A,,Overcast,10,2013-02-25 03:55:00
10:15 PM,29.1,27.1,92,30.07,3.0,North,9.2,-,N/A,Snow,Light Snow,360,2013-02-25 04:15:00
10:35 PM,29.1,27.5,94,30.06,2.5,North,13.8,-,N/A,Snow,Light Snow,360,2013-02-25 04:35:00
10:55 PM,28.9,27.5,94,30.05,2.5,North,12.7,-,N/A,Snow,Light Snow,10,2013-02-25 04:55:00
11:15 PM,29.1,27.5,94,30.06,3.0,North,11.5,-,N/A,,Overcast,10,2013-02-25 05:15:00
11:35 PM,29.1,27.7,94,30.05,3.0,North,11.5,-,N/A,,Overcast,10,2013-02-25 05:35:00
11:55 PM,28.9,27.5,94,30.05,3.0,North,9.2,-,N/A,,Overcast,10,2013-02-25 05:55:00